Date,TemperatureHighF,TemperatureAvgF,TemperatureLowF,DewpointHighF,DewpointAvgF,DewpointLowF,HumidityHigh,HumidityAvg,HumidityLow,PressureMaxIn,PressureMinIn,WindSpeedMaxMPH,WindSpeedAvgMPH,GustSpeedMaxMPH,PrecipitationSumIn
2013-2-18,30.2,25.2,20.7,28.9,22.9,17.6,95,91,88,29.53,29.46,14,5,17,1.79
2013-2-19,19.7,9.7,5.8,16.5,3.3,-2.5,89,75,67,30.22,29.55,17,5,20,0.00
2013-2-20,21.7,11.6,2.6,10.3,3.7,-3.2,77,70,59,30.40,30.22,11,2,13,0.00
2013-2-21,23.9,17.0,8.7,21.9,13.2,4.3,95,85,75,30.43,30.02,13,1,22,0.00
2013-2-22,31.2,25.7,22.1,26.7,23.1,20.6,95,90,83,30.02,29.77,11,1,14,0.08
2013-2-23,28.4,23.8,20.4,21.2,18.8,15.8,89,81,69,29.93,29.83,8,2,11,0.01
2013-2-24,37.2,25.4,16.5,23.4,18.2,13.6,89,75,55,30.12,29.93,6,1,9,0.03
2013-2-25,40.9,29.0,18.4,28.0,22.5,15.7,92,77,58,30.14,30.00,5,0,9,0.00
2013-2-26,32.3,28.8,26.5,27.5,25.8,22.7,96,89,77,30.00,29.64,18,6,26,0.01
2013-2-27,31.6,30.4,26.9,30.2,29.1,25.7,96,95,93,29.78,29.63,13,4,16,0.03
2013-2-28,32.7,29.4,22.5,28.9,25.7,18.4,95,86,76,30.11,29.78,11,3,15,0.06
2013-3-1,26.0,21.0,13.2,19.9,16.3,9.9,90,82,69,30.24,30.11,13,2,16,0.00
2013-3-2,27.5,16.5,7.5,13.4,8.5,4.2,89,72,50,30.26,30.17,11,1,13,0.00
2013-3-3,29.8,15.6,7.6,13.1,6.6,2.6,82,67,43,30.17,30.08,4,0,8,0.01
2013-3-4,31.9,26.6,15.3,23.8,19.9,8.3,87,76,54,30.09,29.99,11,1,14,0.01
2013-3-5,28.1,26.6,24.8,26.3,24.3,22.5,94,91,87,30.01,29.87,10,2,14,0.03
2013-3-6,30.8,26.5,23.2,24.4,22.0,20.1,91,83,76,30.31,30.10,5,3,15,0.08
2013-3-7,35.0,23.3,15.4,21.6,18.1,13.0,90,81,56,30.41,30.31,3,0,7,0.12
2013-3-8,37.4,28.9,16.6,27.5,23.0,14.0,94,79,65,30.44,30.24,10,1,12,0.00
2013-3-9,39.1,34.6,29.0,35.2,31.4,23.7,96,88,74,30.24,29.75,11,1,14,0.13
2013-3-10,38.9,36.6,33.6,38.1,35.6,32.8,97,96,93,29.76,29.61,10,1,13,0.04
2013-3-11,32.6,30.6,27.9,31.8,29.1,24.2,98,94,85,29.75,29.54,11,3,16,0.00
2013-3-12,30.2,25.7,22.7,25.6,22.4,17.8,94,87,72,30.02,29.75,13,3,16,0.00
2013-3-13,31.9,23.7,16.7,19.3,11.1,4.7,89,61,32,30.30,30.01,15,5,18,0.01
2013-3-14,36.1,28.8,15.8,28.1,24.2,10.7,93,83,61,30.30,30.06,8,2,11,0.01
2013-3-15,34.3,31.6,26.3,31.8,29.4,25.1,95,92,85,30.04,29.78,11,1,13,0.17
2013-3-16,28.6,24.8,19.7,25.6,20.4,17.2,94,83,71,30.12,29.77,10,2,14,0.00
2013-3-17,33.0,25.8,14.8,20.2,18.0,7.4,82,72,59,30.25,29.98,7,1,13,0.00
2013-3-18,31.7,24.9,15.2,28.9,21.2,9.9,92,86,74,29.98,29.57,18,2,22,0.13
2013-3-19,29.3,15.3,9.4,10.6,7.6,4.7,82,72,39,30.07,29.72,20,6,22,0.00
2013-3-20,18.2,9.2,6.2,7.7,0.6,-1.8,69,68,63,30.08,30.07,6,4,11,0.00
2013-3-21,28.4,18.3,6.8,10.9,7.5,1.4,78,63,45,30.08,30.01,4,1,13,0.00
2013-3-22,36.3,28.6,13.4,17.6,15.0,6.9,76,57,45,30.07,30.02,6,0,8,0.00
2013-3-23,35.8,25.2,21.8,20.8,17.2,15.2,77,71,50,30.10,30.04,6,0,10,0.00
2013-3-24,29.7,28.6,27.0,26.7,23.9,20.7,91,83,75,30.06,29.78,14,5,18,0.01
2013-3-25,32.7,30.5,24.0,24.2,22.4,17.8,81,71,67,30.09,29.83,14,4,16,0.01
2013-3-26,37.2,32.0,28.3,24.1,22.2,20.6,76,67,57,30.25,30.09,10,1,12,0.00
2013-3-27,40.9,32.2,30.2,24.1,21.0,18.5,76,64,42,30.30,30.24,6,1,11,0.00
2013-3-28,31.9,29.0,26.3,19.1,18.4,17.5,69,64,58,30.31,30.28,4,1,6,0.00
2013-3-29,36.5,31.0,28.9,23.1,21.5,20.1,73,68,52,30.29,30.26,0,0,4,0.00
2013-3-30,49.6,46.1,33.5,37.4,34.3,23.2,69,63,59,30.18,29.90,12,4,15,0.00
2013-3-31,43.3,36.0,30.6,40.0,28.3,17.9,96,74,55,29.90,29.70,10,4,19,0.00
2013-4-1,33.7,27.1,23.6,18.3,13.6,9.8,64,57,39,30.19,29.90,12,3,18,0.00
2013-4-2,38.1,25.7,22.1,15.9,14.2,12.1,75,62,38,30.32,30.18,9,1,16,0.00
2013-4-3,27.6,26.3,25.5,14.5,14.0,13.4,62,59,55,30.33,30.31,4,0,7,0.00
2013-4-4,33.2,31.3,30.3,21.3,20.5,20.0,65,64,60,30.24,30.13,7,3,10,0.00
2013-4-5,46.6,39.1,30.0,29.3,23.9,19.6,70,56,34,30.20,30.02,3,1,12,0.00
2013-4-6,59.5,52.7,33.1,48.9,39.4,18.6,90,61,48,30.07,29.51,15,3,18,0.01
2013-4-7,53.7,47.5,35.7,37.7,36.1,31.1,85,65,52,29.89,29.65,7,1,19,0.00
2013-4-8,55.8,38.9,36.8,41.1,35.5,31.8,97,88,79,29.83,29.60,5,2,14,0.04
2013-4-9,43.2,37.9,35.7,41.6,36.9,34.4,97,96,94,29.97,29.82,3,2,21,0.00
2013-4-10,35.2,33.1,31.1,34.2,32.0,29.8,97,96,93,30.03,29.89,5,3,20,0.00
2013-4-11,36.9,35.1,33.5,36.1,34.3,32.7,98,97,95,29.89,29.56,5,3,23,0.00
2013-4-12,38.8,33.2,32.3,34.9,28.8,27.2,98,84,80,29.78,29.50,7,2,16,0.01
2013-4-13,35.2,32.3,30.9,28.7,27.5,24.5,88,82,66,29.86,29.77,15,3,17,0.00
2013-4-14,50.4,44.7,29.9,45.0,40.0,25.2,95,84,75,29.97,29.53,6,1,14,0.01
2013-4-15,49.2,46.5,45.1,46.1,44.8,43.5,97,94,86,29.63,29.56,5,0,11,0.00
2013-4-16,51.6,41.5,31.7,34.4,31.4,27.7,85,69,46,30.25,29.93,7,2,16,0.00
2013-4-17,41.8,38.8,36.5,39.9,35.5,31.3,97,88,72,30.27,29.80,6,1,20,0.00
2013-4-18,57.2,44.1,35.3,56.9,42.9,31.8,99,95,86,29.84,29.28,11,3,27,0.26
2013-4-19,36.6,33.6,29.6,31.7,27.0,21.5,90,77,62,29.90,29.33,10,6,27,0.00
2013-4-20,45.3,37.8,24.7,21.6,17.2,12.1,82,45,27,30.35,29.90,12,2,17,0.00
2013-4-21,52.2,41.2,31.6,36.3,28.9,19.3,76,62,46,30.46,30.21,14,2,24,0.00
2013-4-22,65.4,51.9,41.7,41.9,37.4,33.7,75,59,39,30.22,29.93,15,3,17,0.01
2013-4-23,54.9,42.6,36.8,45.6,35.8,28.0,89,77,61,29.97,29.82,14,4,17,0.00
2013-4-24,52.1,45.0,31.4,26.9,24.8,20.5,77,47,30,30.02,29.94,10,3,16,0.00
2013-4-25,51.2,44.2,36.3,34.1,28.4,25.7,88,55,41,30.24,29.94,10,2,16,0.00
2013-4-26,67.9,50.9,37.6,45.6,35.4,24.3,73,56,40,30.24,30.09,14,3,21,0.00
2013-4-27,64.6,54.5,43.7,49.5,44.7,41.3,92,71,51,30.17,29.95,7,1,9,0.00
2013-4-28,71.2,57.2,41.6,47.9,43.9,39.5,93,65,38,29.95,29.73,7,1,10,0.00
2013-4-29,69.1,59.0,51.9,56.7,51.0,46.7,86,75,55,29.79,29.63,9,2,15,0.03
2013-4-30,85.4,67.0,58.9,60.0,53.8,47.0,92,67,27,29.80,29.58,12,3,20,0.05
2013-5-1,78.2,62.3,48.7,56.9,47.9,40.1,74,60,41,30.15,29.79,12,3,16,0.00
2013-5-2,52.8,43.7,34.7,40.5,36.6,32.9,94,77,60,30.24,30.14,14,4,18,0.11
2013-5-3,45.3,39.0,33.2,44.5,37.9,31.6,97,96,93,30.19,29.97,11,2,14,0.66
2013-5-4,68.9,54.9,45.3,57.9,48.6,44.3,98,81,50,30.03,29.94,11,1,13,0.24
2013-5-5,72.8,59.8,47.1,51.9,46.4,41.6,91,64,37,30.01,29.93,11,1,13,0.00
2013-5-6,73.5,60.1,47.1,48.7,43.2,41.0,80,56,33,30.02,29.93,6,0,14,0.00
2013-5-7,76.5,59.9,53.3,48.0,42.0,36.6,69,54,24,30.00,29.91,3,0,13,0.00
2013-5-8,79.9,68.9,56.2,50.8,45.7,41.3,69,45,27,29.96,29.88,3,0,9,0.00
2013-5-9,63.6,57.3,47.5,58.0,51.5,46.3,97,82,56,29.89,29.78,12,1,18,1.00
2013-5-10,51.0,45.8,40.2,47.3,43.6,38.9,97,92,84,29.95,29.82,14,2,16,0.37
2013-5-11,50.9,47.5,45.3,48.0,42.2,27.8,96,84,42,29.91,29.77,21,4,28,0.00
2013-5-12,53.6,46.8,34.3,29.6,25.3,22.2,69,44,30,30.09,30.01,19,4,21,0.00
2013-5-13,42.1,36.3,33.2,32.8,27.9,23.7,89,73,49,30.11,30.07,7,0,10,0.00
2013-5-14,88.2,71.4,54.0,59.8,48.5,36.6,65,46,26,29.84,29.49,5,2,16,0.01
2013-5-15,76.5,69.8,62.9,59.2,45.3,40.2,58,42,30,29.78,29.50,6,2,15,0.00
2013-5-16,84.1,69.7,57.7,52.2,45.1,38.6,59,43,26,29.89,29.78,2,1,13,0.01
2013-5-17,63.2,58.2,48.1,54.0,47.7,33.9,94,69,42,30.00,29.88,9,1,15,0.21
2013-5-18,79.7,66.5,51.5,65.8,56.9,46.5,86,72,54,30.00,29.84,7,0,10,0.00
2013-5-19,84.4,71.6,62.2,66.8,61.6,55.1,89,72,49,29.86,29.53,13,1,22,0.15
2013-5-20,80.7,70.1,60.7,63.8,60.5,56.4,96,73,51,29.70,29.51,10,2,12,0.47
2013-5-21,74.1,67.2,58.5,62.2,58.1,54.8,90,73,55,29.62,29.51,9,1,12,0.00
2013-5-22,69.1,61.1,54.0,61.3,57.2,52.6,96,87,72,29.72,29.54,8,1,10,0.15
2013-5-23,62.0,52.9,45.4,52.5,44.9,35.7,96,76,39,30.25,29.72,16,2,18,0.14
2013-5-24,64.6,51.4,35.5,43.6,38.8,33.5,94,64,38,30.41,30.24,8,0,11,0.00
2013-5-25,58.1,51.4,44.0,43.2,39.6,35.3,85,65,44,30.34,30.24,7,0,9,0.06
2013-5-26,65.1,54.3,45.4,52.2,42.6,34.5,86,66,45,30.26,30.09,7,0,10,0.05
2013-5-27,54.6,52.7,49.8,45.5,30.0,22.7,78,43,33,30.10,29.83,10,1,14,0.08
2013-5-28,71.4,60.5,50.6,64.6,41.5,23.3,80,52,29,29.83,29.64,7,0,9,0.75
2013-5-29,80.8,70.0,62.1,69.5,52.3,30.2,80,56,29,29.83,29.70,12,1,17,0.23
2013-5-30,80.9,70.1,61.4,71.1,54.7,28.9,78,61,29,29.80,29.60,10,2,13,0.25
2013-5-31,75.9,67.7,61.7,65.8,54.7,37.5,78,64,35,29.70,29.59,9,2,11,0.01
2013-6-1,76.9,68.3,61.0,65.5,51.0,29.0,78,57,27,29.64,29.54,9,1,15,0.00
2013-6-2,61.9,53.5,46.2,54.1,44.3,39.8,80,72,51,29.98,29.63,12,3,17,0.00
2013-6-3,70.3,57.5,42.6,46.9,41.3,31.7,80,57,35,30.06,29.96,6,0,11,0.00
2013-6-8,71.2,62.4,52.3,52.2,47.9,44.0,79,60,45,29.93,29.87,1,0,9,0.00
2013-6-9,76.1,65.8,55.5,63.4,51.5,29.4,78,62,28,29.93,29.71,2,0,11,0.22
2013-6-10,78.4,68.8,58.2,64.9,50.5,25.3,78,56,27,29.79,29.70,4,1,11,0.00
2013-6-11,82.7,71.8,60.0,66.7,60.2,42.6,78,67,52,29.84,29.70,2,0,8,0.00
2013-6-12,77.2,69.4,60.5,69.1,54.7,28.4,77,62,27,29.83,29.53,4,1,15,0.85
2013-6-13,76.6,66.8,56.3,60.4,51.9,29.5,79,60,31,29.98,29.67,5,2,15,0.00
2013-6-14,77.5,66.7,54.2,59.8,55.1,37.9,78,67,49,30.08,29.91,2,0,10,0.00
2013-6-15,82.8,69.4,57.5,69.9,56.4,26.4,78,64,30,29.99,29.73,7,0,10,0.25
2013-6-16,82.7,73.4,65.4,64.6,51.3,30.9,77,47,27,29.84,29.78,10,1,13,0.17
2013-6-17,84.9,75.0,65.4,64.0,56.1,50.2,63,52,37,29.84,29.79,9,2,12,0.00
2013-6-18,61.0,59.5,57.7,49.3,48.2,46.7,73,66,60,30.03,30.01,0,0,2,0.00
2013-6-19,81.2,66.0,49.3,57.6,49.6,42.7,79,58,35,30.09,29.98,5,0,8,0.00
2013-6-20,85.9,72.9,58.4,63.3,55.5,45.5,71,55,36,30.06,29.95,6,1,9,0.00
2013-6-21,77.8,70.1,64.1,67.0,56.3,28.6,77,64,26,30.02,29.74,13,1,18,0.61
2013-6-22,82.4,70.5,64.8,71.7,49.0,29.2,77,50,26,30.04,29.83,12,1,17,1.59
2013-6-23,83.9,72.2,61.7,73.4,55.0,27.8,77,58,26,30.00,29.77,7,1,10,0.19
2013-6-24,80.2,71.3,67.1,69.2,59.5,37.1,78,67,34,29.93,29.74,6,0,10,0.00
2013-6-25,82.2,71.2,63.7,73.5,49.3,29.1,78,49,27,29.88,29.72,8,0,12,1.56
2013-6-26,82.8,74.0,64.5,71.2,55.7,30.1,79,56,27,29.75,29.61,8,0,12,2.32
2013-6-27,85.6,76.2,68.4,71.4,58.0,32.8,78,55,27,29.73,29.61,12,2,17,0.00
2013-6-28,75.3,67.8,63.5,63.4,53.6,32.5,79,62,31,29.67,29.56,12,2,17,0.36
2013-6-29,71.2,64.6,61.7,62.8,46.8,30.4,80,57,29,29.78,29.57,12,2,15,0.23
2013-6-30,77.0,65.5,55.8,61.2,54.1,49.6,81,68,43,29.99,29.78,9,1,12,0.00
2013-7-1,78.2,65.9,55.8,58.5,53.1,49.4,80,65,40,30.06,29.98,11,1,13,0.00
2013-7-2,74.0,65.2,55.0,57.2,51.4,43.6,80,63,34,30.06,29.99,8,1,13,0.00
2013-7-3,69.6,61.6,51.9,60.9,54.4,44.2,81,77,55,30.03,29.96,6,0,8,0.00
2013-7-4,82.4,70.5,57.7,64.5,54.0,33.6,80,57,40,30.02,29.93,5,0,7,0.00
2013-7-5,84.3,73.5,62.3,67.9,61.4,51.2,80,67,50,29.98,29.90,6,0,8,0.00
2013-7-6,85.5,73.9,63.1,68.6,63.1,55.1,79,70,50,29.95,29.86,5,0,8,0.00
2013-7-7,88.4,77.3,66.1,72.8,65.5,49.2,79,68,54,29.89,29.82,5,0,8,0.00
2013-7-8,87.4,77.6,69.7,76.2,65.2,40.7,79,67,33,29.89,29.81,5,1,10,0.37
2013-7-9,84.6,76.6,69.6,75.2,62.7,36.4,79,64,29,29.90,29.73,6,0,9,0.12
2013-7-10,76.9,72.0,62.9,66.5,60.6,55.8,80,68,51,29.95,29.76,14,2,16,0.00
2013-7-11,79.7,67.2,57.5,61.8,55.7,48.8,81,68,45,30.06,29.95,7,1,9,0.00
2013-7-12,82.9,71.6,59.1,60.4,55.9,51.8,81,59,39,30.09,29.99,5,0,7,0.00
2013-7-13,83.8,72.1,60.6,66.3,59.5,54.4,80,66,45,30.08,30.00,6,0,10,0.00
2013-7-14,87.1,75.9,62.3,69.7,64.3,55.4,80,68,50,30.14,30.07,5,0,7,0.00
2013-7-15,91.3,79.8,67.5,75.2,68.1,53.7,79,68,51,30.19,30.10,7,0,9,0.00
2013-7-16,92.0,82.3,72.3,76.2,69.0,43.5,78,65,35,30.19,30.13,6,0,9,0.00
2013-7-17,93.0,83.2,75.1,76.9,72.0,65.6,79,70,52,30.20,30.07,12,1,15,0.02
2013-7-18,92.0,83.1,73.8,75.8,71.0,63.4,79,68,51,30.08,29.80,8,1,12,0.00
2013-7-19,89.6,81.0,72.5,75.4,69.3,61.9,79,68,50,29.80,29.65,9,1,16,0.00
2013-7-20,84.3,74.0,63.6,66.4,62.3,57.0,80,68,49,29.88,29.75,8,1,10,0.00
2013-7-21,84.2,68.0,61.5,70.3,57.1,34.8,81,69,35,29.90,29.79,10,0,20,0.26
2013-7-22,85.7,70.5,61.0,71.5,55.6,34.2,81,61,35,29.82,29.61,16,0,26,0.10
2013-7-23,72.7,66.8,56.6,60.2,55.4,46.1,81,68,51,29.93,29.65,12,2,15,0.01
2013-7-24,74.1,61.8,52.5,57.5,50.5,30.1,81,67,39,30.03,29.92,5,0,8,0.01
2013-7-25,78.7,67.6,56.0,65.7,58.6,49.9,82,74,58,30.01,29.89,8,0,11,0.01
2013-7-26,76.6,66.4,60.7,68.6,52.4,35.5,81,62,36,29.90,29.76,13,1,15,0.00
2013-7-27,60.8,53.5,50.8,54.8,46.6,42.9,83,78,65,29.90,29.83,10,3,13,0.01
2013-7-28,65.5,56.6,50.2,54.4,47.2,31.0,83,71,47,29.98,29.81,9,2,13,0.00
2013-7-29,73.4,62.8,52.4,60.8,54.2,42.3,82,74,60,30.10,29.97,6,0,10,0.00
2013-7-30,71.6,64.1,55.8,63.3,55.0,37.5,82,73,49,30.11,30.01,4,0,7,0.01
2013-7-31,78.3,67.8,62.6,67.4,56.4,43.0,81,67,48,30.02,29.89,12,1,18,0.24
2013-8-1,76.7,67.4,59.3,60.2,54.9,45.8,82,65,47,29.95,29.83,9,1,12,0.01
2013-8-2,78.3,68.4,61.2,66.1,55.3,43.1,81,64,48,29.90,29.76,8,1,11,0.14
2013-8-3,75.1,65.6,53.5,58.5,53.1,45.5,82,65,43,30.08,29.90,9,1,12,0.00
2013-8-4,74.2,64.2,52.6,60.3,54.0,45.0,82,71,44,30.16,30.04,7,0,9,0.00
2013-8-5,70.7,63.4,57.6,63.3,54.4,41.0,82,73,42,30.04,29.79,6,0,8,0.04
2013-8-6,83.3,72.8,64.6,71.2,58.0,38.7,82,62,38,29.81,29.71,6,0,8,0.01
2013-8-7,77.2,71.6,62.3,66.9,60.4,46.3,82,68,44,29.90,29.67,10,1,13,0.00
2013-8-8,78.1,67.6,57.5,64.1,58.2,38.8,83,73,45,29.98,29.90,6,0,9,0.00
2013-8-9,78.0,68.5,60.4,66.0,59.1,54.0,83,73,54,30.00,29.91,8,1,10,0.00
2013-8-10,74.2,64.9,56.3,58.6,54.8,50.3,83,71,51,30.09,30.00,10,1,12,0.00
2013-8-11,73.8,64.6,56.8,65.9,56.7,40.8,83,76,45,30.08,29.96,6,0,8,0.15
2013-8-12,78.5,69.5,62.9,67.5,53.8,39.8,83,59,40,29.97,29.84,11,1,14,0.13
2013-8-13,69.3,61.2,51.6,56.6,50.6,46.6,84,69,49,30.11,29.91,9,1,11,0.00
2013-8-14,73.1,61.1,47.5,54.9,49.6,30.6,84,67,46,30.17,30.07,6,0,9,0.00
2013-8-15,74.1,64.4,56.1,58.9,53.7,50.8,83,69,45,30.10,30.03,7,0,9,0.00
2013-8-16,77.2,64.5,57.5,58.4,54.7,52.4,83,72,44,30.12,30.06,6,1,8,0.00
2013-8-17,80.3,72.8,54.9,60.1,55.5,48.2,83,56,37,30.18,30.11,6,0,9,0.00
2013-8-18,80.4,69.3,57.5,60.7,56.1,52.4,83,65,42,30.14,30.02,2,0,12,0.00
2013-8-19,81.7,70.0,59.6,64.2,59.6,54.4,83,71,50,30.03,29.95,2,0,11,0.00
2013-8-20,85.4,73.8,63.5,67.8,62.7,54.3,83,70,49,30.00,29.91,2,0,11,0.00
2013-8-21,88.3,77.4,68.2,71.0,67.4,62.5,82,72,52,29.94,29.83,3,1,9,0.00
2013-8-22,75.8,70.7,65.6,68.8,59.0,41.5,82,68,39,30.06,29.89,11,0,23,0.84
2013-8-23,81.5,70.1,57.7,63.8,56.5,41.8,83,63,41,30.12,30.04,6,0,10,0.00
2013-8-24,83.0,71.4,59.2,69.2,61.6,51.0,82,72,60,30.17,30.07,6,1,9,4.99
2013-8-25,87.7,77.0,67.6,73.4,66.9,61.9,83,72,55,30.11,30.00,8,1,10,0.00
2013-8-26,89.8,78.9,69.7,76.4,70.2,64.0,82,75,61,30.03,29.86,6,1,8,0.00
2013-8-27,91.8,82.0,73.5,75.7,72.0,67.7,82,72,55,29.88,29.71,6,1,11,0.00
2013-8-28,82.3,75.6,70.0,72.3,65.7,49.7,82,72,47,29.97,29.74,6,0,9,0.00
2013-8-29,85.6,75.0,63.8,71.2,63.0,41.4,82,67,43,30.01,29.88,5,0,8,0.00
2013-9-2,67.6,62.1,53.1,58.4,54.7,48.4,85,77,64,29.96,29.77,4,2,13,0.00
2013-9-3,71.0,59.8,47.6,58.1,49.0,32.0,85,68,52,30.06,29.95,3,1,10,0.00
2013-9-4,81.0,68.4,55.5,66.0,59.4,50.8,85,74,57,30.06,29.98,3,1,10,0.00
2013-9-5,75.3,67.3,57.7,61.8,57.8,49.1,84,72,61,30.18,30.04,2,0,13,0.00
2013-9-6,85.6,70.1,55.6,66.2,58.4,47.7,80,67,50,30.15,29.90,1,0,9,0.00
2013-9-7,87.5,76.2,66.7,72.7,66.4,61.0,83,72,56,29.90,29.79,3,0,12,0.00
2013-9-8,71.6,68.3,61.9,66.2,63.1,55.4,84,83,79,29.98,29.87,10,0,16,0.00
2013-9-9,91.7,76.8,64.9,76.5,66.5,46.2,84,71,49,29.89,29.69,5,0,9,0.00
2013-9-10,93.2,81.9,72.3,68.0,64.3,61.2,72,57,35,29.86,29.74,9,1,14,0.00
2013-9-11,80.2,71.8,64.0,69.0,62.9,44.9,83,74,47,30.01,29.86,11,1,13,0.20
2013-9-12,71.0,64.3,55.8,63.0,53.7,46.9,84,70,51,30.08,29.91,12,3,16,0.00
2013-9-13,63.0,52.9,43.7,47.2,42.2,38.1,86,69,43,30.19,30.08,8,1,12,0.00
2013-9-14,70.1,57.7,45.3,49.0,45.0,41.1,86,65,40,30.12,29.92,10,0,12,0.00
2013-9-15,59.2,54.9,52.3,54.7,44.8,36.4,85,69,52,30.18,29.90,7,1,10,0.59
2013-9-16,62.3,54.2,41.4,50.0,45.6,37.2,87,74,54,30.36,30.18,11,0,13,0.00
2013-9-17,68.4,55.3,41.7,55.8,46.9,29.3,86,74,55,30.30,30.02,4,0,9,0.00
2013-9-18,74.6,66.0,58.3,67.0,59.7,53.8,85,80,72,30.02,29.80,6,1,9,0.01
2013-9-19,85.9,70.7,65.4,73.1,57.6,45.3,83,64,45,29.81,29.63,18,1,24,1.41
2013-9-20,67.1,64.0,55.0,61.9,53.6,45.3,86,70,48,29.78,29.65,11,2,14,0.00
2013-9-21,59.1,52.7,45.6,49.9,46.1,39.8,87,78,66,29.91,29.77,10,2,14,0.00
2013-9-22,62.0,51.2,40.7,49.6,42.2,29.6,87,72,55,30.04,29.91,6,0,8,0.00
2013-9-23,67.2,54.9,44.6,54.0,46.8,35.2,86,75,59,30.07,29.96,7,0,10,0.00
2013-9-24,70.6,57.2,45.9,54.5,46.3,32.4,86,68,49,29.99,29.89,8,0,12,0.00
2013-9-25,69.1,57.2,46.3,56.3,46.9,33.3,86,69,54,29.95,29.88,8,0,12,0.00
2013-9-26,74.9,59.6,46.1,58.2,47.2,32.5,86,64,46,30.01,29.93,5,0,8,0.00
2013-9-27,78.5,64.3,52.4,57.0,51.9,48.7,87,68,38,30.07,29.96,6,1,9,0.00
2013-9-28,79.2,68.3,52.8,64.1,56.9,41.6,85,68,55,29.91,29.75,10,2,15,0.19
2013-9-29,67.9,55.8,46.4,50.1,42.5,32.3,87,62,41,30.01,29.91,6,0,8,0.01
2013-9-30,71.0,58.8,46.6,49.8,46.1,42.5,86,65,39,29.93,29.75,8,1,11,0.00
2013-10-1,77.6,66.2,55.7,62.3,56.8,49.7,86,73,56,29.90,29.76,9,1,12,0.00
2013-10-2,74.8,62.6,48.9,55.4,46.1,38.5,87,59,27,30.05,29.90,8,0,10,0.00
2013-10-3,74.7,65.1,57.1,66.2,57.9,42.9,86,78,49,29.90,29.74,9,0,11,0.00
2013-10-4,66.3,64.3,61.0,58.0,48.0,43.0,75,56,48,29.93,29.79,9,0,12,0.74
2013-10-5,63.2,61.5,60.4,46.8,44.2,42.6,57,53,51,29.87,29.81,7,0,10,0.01
2013-10-6,55.3,47.9,42.2,47.1,41.0,38.6,88,77,59,29.70,29.62,6,0,10,0.02
2013-10-7,64.2,51.3,43.0,49.0,43.0,38.5,88,75,48,30.03,29.67,11,1,13,0.00
2013-10-8,73.1,58.7,45.5,53.3,45.6,40.9,86,64,35,30.09,30.01,7,1,10,0.00
2013-10-9,70.6,58.2,49.3,52.7,46.5,41.7,87,67,40,30.14,30.05,5,0,9,0.00
2013-10-10,71.6,58.7,47.0,52.9,48.1,41.0,87,70,45,30.10,29.97,6,0,9,0.00
2013-10-11,72.8,61.1,49.4,59.7,53.1,39.2,87,76,59,29.98,29.83,7,1,10,0.00
2013-10-12,67.2,62.3,58.7,59.1,52.6,40.5,86,72,44,29.98,29.81,9,2,15,0.00
2013-10-13,58.1,48.5,40.6,42.3,37.1,33.8,83,66,40,30.36,30.09,5,1,14,0.00
2013-10-14,60.4,51.9,35.0,45.9,41.8,28.2,88,70,53,30.38,30.06,7,0,11,0.00
2013-10-15,58.4,51.5,47.8,53.5,44.1,37.7,87,77,53,30.06,29.68,13,1,15,0.29
2013-10-16,51.5,47.7,45.2,47.8,41.6,34.1,88,80,63,29.90,29.73,8,1,11,0.03
2013-10-17,51.9,45.2,40.9,43.9,37.1,32.3,88,73,62,29.88,29.76,6,0,9,0.04
2013-10-18,46.0,42.7,38.9,41.2,37.8,34.8,88,83,74,29.91,29.75,11,1,15,0.00
2013-10-19,50.9,39.2,32.8,40.1,34.7,29.9,89,84,50,29.88,29.69,9,0,20,0.02
2013-10-20,47.5,41.2,31.0,44.0,36.3,22.8,88,83,64,29.81,29.66,6,0,8,0.09
2013-10-21,46.1,37.1,29.3,42.2,29.1,22.8,87,73,56,29.92,29.71,16,3,18,0.00
2013-10-22,42.6,34.4,26.7,31.2,26.7,22.3,84,74,60,29.95,29.88,7,1,9,0.00
2013-10-23,40.0,32.8,26.5,30.4,26.8,23.4,89,79,57,30.01,29.93,8,1,12,0.00
2013-10-24,41.2,34.4,28.7,28.2,25.4,23.0,85,70,52,30.28,30.00,10,2,15,0.00
2013-10-25,49.8,39.6,28.7,32.2,27.2,23.5,82,63,45,30.33,29.88,12,2,14,0.00
2013-10-26,48.6,43.8,36.6,36.9,29.9,27.1,76,58,46,30.03,29.75,14,3,18,0.00
2013-10-27,52.6,42.4,30.2,32.7,29.3,25.6,83,61,41,30.03,29.85,8,1,12,0.00
2013-10-28,41.9,39.5,35.4,32.6,31.0,28.5,87,72,65,30.38,29.99,10,1,12,0.00
2013-10-29,49.3,43.7,34.7,41.4,37.3,28.8,87,78,72,30.37,30.09,6,0,13,0.00
2013-10-30,54.0,50.4,44.0,41.5,36.8,32.4,87,60,56,30.09,29.68,7,0,9,0.00
2013-10-31,60.4,53.2,41.3,51.9,42.2,38.0,89,67,52,29.68,29.22,14,2,16,0.44
2013-11-1,44.5,41.4,36.8,41.5,38.2,33.6,89,88,85,29.72,29.28,11,2,15,0.03
2013-11-2,43.5,37.3,33.2,36.0,32.5,28.5,89,83,72,30.12,29.71,5,0,12,0.00
2013-11-3,48.3,41.2,29.0,38.6,33.1,24.4,90,74,54,30.25,30.12,8,1,13,0.00
2013-11-4,50.3,46.1,39.4,44.6,39.4,35.1,88,77,68,30.15,29.98,9,2,13,0.00
2013-11-5,52.4,49.6,45.1,47.3,42.2,37.3,88,76,63,30.20,29.78,10,2,13,0.38
2013-11-6,52.3,38.8,31.1,43.7,31.7,22.7,89,76,58,30.13,29.69,15,4,18,0.23
2013-11-7,38.6,33.4,28.2,31.4,27.8,23.1,89,80,70,30.22,30.13,10,2,13,0.00
2013-11-8,45.1,35.5,24.0,35.0,29.0,20.2,90,78,64,30.26,29.76,9,2,13,0.00
2013-11-9,50.4,44.7,35.9,40.6,34.5,25.1,78,67,55,30.06,29.72,22,6,28,0.00
2013-11-10,46.2,40.6,33.7,32.0,29.8,26.2,77,65,52,30.29,30.06,11,2,18,0.00
2013-11-11,43.1,30.5,18.9,33.1,24.0,12.8,89,77,66,30.55,30.01,11,3,16,0.04
2013-11-12,26.9,20.5,14.9,16.1,13.0,10.4,82,73,56,30.72,30.55,9,2,12,0.00
2013-11-13,40.3,28.1,15.9,19.9,15.8,11.6,83,62,41,30.56,30.05,14,3,16,0.00
2013-11-14,46.1,40.5,31.0,32.4,28.2,21.3,74,61,52,29.94,29.85,11,2,13,0.01
2013-11-15,54.0,41.9,33.2,39.8,32.9,27.7,87,71,56,29.89,29.82,7,1,11,0.00
2013-11-16,56.4,50.3,36.0,52.6,42.7,28.9,89,76,61,29.82,29.41,12,4,18,0.15
2013-11-17,56.4,48.4,36.8,52.2,42.1,31.5,89,79,58,29.64,29.11,21,4,24,0.73
2013-11-18,36.8,31.9,24.8,31.5,25.1,20.3,84,76,62,30.24,29.63,19,5,22,0.00
2013-11-19,37.9,29.5,19.3,28.3,23.3,16.6,90,78,61,30.33,30.19,7,1,10,0.00
2013-11-20,38.2,34.3,30.9,31.6,28.9,27.4,89,81,68,30.20,30.05,11,2,14,0.06
2013-11-21,40.3,37.6,34.8,37.2,33.0,28.6,90,84,74,30.23,30.06,9,1,13,0.01
2013-11-22,35.8,27.8,22.2,32.9,20.4,13.9,90,74,57,30.47,30.22,11,2,13,0.01
2013-11-23,22.1,11.9,9.0,14.1,3.2,2.1,74,68,53,30.73,30.40,10,3,20,0.00
2013-11-24,24.7,16.0,6.6,8.7,5.4,2.3,83,63,41,30.70,30.24,14,3,16,0.00
2013-11-25,28.7,24.7,19.4,25.9,20.5,8.4,90,84,59,30.24,30.01,13,3,16,0.00
2013-11-26,30.2,22.7,10.4,26.1,14.9,2.5,89,72,57,30.22,30.01,15,4,18,0.00
2013-11-27,23.6,15.9,8.7,12.6,8.1,2.0,84,71,55,30.28,30.20,10,2,13,0.00
2013-11-28,27.1,23.0,16.6,16.6,14.4,11.7,82,69,61,30.50,30.15,8,1,11,0.00
2013-11-29,28.2,21.4,10.9,21.5,15.5,8.2,90,78,66,30.61,30.32,7,1,10,0.00
2013-11-30,41.2,32.2,25.3,31.5,26.3,20.8,87,79,66,30.32,30.01,8,1,10,0.01
2013-12-1,37.4,31.5,26.8,29.0,25.9,23.2,89,80,65,30.12,29.95,7,0,10,0.00
2013-12-2,37.4,31.2,23.7,32.8,26.9,20.4,90,84,75,29.95,29.70,10,2,14,0.00
2013-12-3,37.4,35.1,32.4,28.2,26.0,23.9,78,69,68,29.72,29.63,7,1,10,0.06
2013-12-4,47.5,38.1,31.3,39.3,30.6,25.2,91,74,69,29.72,29.41,15,2,17,0.00
2013-12-5,31.3,18.7,11.0,28.2,12.9,5.9,89,78,65,30.28,29.60,19,4,23,0.00
2013-12-6,14.1,8.6,4.9,5.9,2.6,0.1,85,76,64,30.58,30.26,10,3,14,0.00
2013-12-7,12.2,5.0,-0.8,1.2,-1.4,-4.5,86,75,55,30.71,30.58,8,1,11,0.00
2013-12-8,17.7,12.9,5.8,15.5,8.5,-0.4,91,82,70,30.63,29.96,9,1,11,0.00
2013-12-9,15.1,6.3,-7.1,12.7,2.2,-11.0,91,83,70,30.19,29.94,12,1,16,0.00
2013-12-10,15.9,6.3,-7.6,9.7,0.7,-11.1,87,78,63,30.28,29.93,16,2,20,0.00
2013-12-11,12.3,4.7,-5.8,9.7,-1.8,-11.9,89,74,58,30.54,30.26,12,2,16,0.00
2013-12-12,15.7,6.9,-6.6,10.0,1.3,-11.1,83,77,69,30.51,30.19,9,1,14,0.00
2013-12-13,22.1,16.2,10.2,17.1,12.1,7.1,88,84,76,30.20,30.14,10,1,13,0.00
2013-12-14,20.7,17.9,15.8,17.9,15.2,12.4,91,89,84,30.18,29.93,12,1,14,0.00
2013-12-15,17.0,8.9,3.0,13.0,1.9,-5.7,85,73,58,30.14,29.93,15,3,17,0.00
2013-12-16,13.3,5.4,-4.4,11.2,0.6,-9.8,91,80,65,30.16,30.03,6,0,9,0.00
2013-12-17,32.8,22.8,13.3,25.3,17.5,10.0,91,80,62,30.07,29.91,14,3,21,0.01
2013-12-18,32.8,22.4,11.3,26.5,15.8,6.8,87,76,59,30.09,29.75,10,2,15,0.00
2013-12-19,31.4,26.2,21.1,27.1,22.7,18.6,90,86,77,29.95,29.77,9,1,15,0.00
2013-12-20,22.3,20.3,18.7,19.8,17.7,16.2,91,89,87,29.88,29.80,10,2,12,0.00
2013-12-21,24.7,22.8,21.1,20.7,19.4,17.8,88,86,83,29.88,29.72,9,1,11,0.00
2013-12-22,24.3,22.3,18.3,21.4,19.4,15.7,91,89,85,30.11,29.70,8,2,11,0.00
2013-12-23,20.6,6.8,-4.4,18.0,3.8,-7.5,91,87,84,30.44,30.11,7,1,10,0.00
2013-12-24,8.2,-0.5,-9.9,5.2,-3.5,-13.2,90,86,85,30.57,30.31,10,2,14,0.00
2013-12-25,20.8,17.2,7.5,18.6,14.9,5.2,91,91,89,30.31,30.07,10,1,12,0.00
2013-12-26,26.0,19.1,10.1,22.9,16.3,7.3,91,89,87,30.22,30.10,7,1,11,0.00
2013-12-27,35.3,25.8,16.3,30.1,22.5,13.9,91,87,80,30.23,29.99,11,2,15,0.00
2013-12-28,40.4,34.3,26.4,32.7,29.3,23.9,90,82,73,30.03,29.70,10,2,14,0.00
2013-12-29,36.9,17.6,-5.3,30.6,12.7,-12.0,90,81,72,30.24,29.68,16,5,21,0.00
2013-12-30,2.0,-4.3,-12.0,-3.9,-10.7,-17.8,86,74,58,30.34,30.23,5,0,8,0.00
2013-12-31,5.3,0.8,-4.9,1.3,-2.8,-8.2,87,85,77,30.38,30.22,7,1,10,0.00
2014-1-1,6.6,2.4,-1.7,0.6,-3.6,-8.0,80,75,72,30.41,30.33,10,2,13,0.00
2014-1-2,8.6,5.1,-2.0,2.2,-1.1,-8.1,84,75,64,30.45,30.30,10,2,12,0.00